Radiation Dose measured at exhaust stack monitor of Fukushima Daiichi Nuclear Power Station
Date,Time,Unit 5 6 shared exhaust cylinders,Wind Direction,Wind Velocity(m/s)
2021/07/08,00:00,4.0,north,2.0
2021/07/08,00:10,3.7,north,2.6
2021/07/08,00:20,3.9,north,3.2
2021/07/08,00:30,4.0,north,2.8
2021/07/08,00:40,4.0,north,2.6
2021/07/08,00:50,3.7,north,2.3
2021/07/08,01:00,3.8,north,1.4
2021/07/08,01:10,3.8,north,1.5
2021/07/08,01:20,3.9,north,1.2
2021/07/08,01:30,4.0,north,1.4
2021/07/08,01:40,3.8,north,1.7
2021/07/08,01:50,3.8,north,1.2
2021/07/08,02:00,4.0,north,1.5
2021/07/08,02:10,3.9,north,1.7
2021/07/08,02:20,3.8,north,1.4
2021/07/08,02:30,3.9,north,1.4
2021/07/08,02:40,3.8,north,1.7
2021/07/08,02:50,3.9,north-northwest,1.7
2021/07/08,03:00,3.9,north,1.2
2021/07/08,03:10,3.9,north-northwest,1.5
2021/07/08,03:20,4.0,north-northwest,1.4
2021/07/08,03:30,3.9,north-northwest,1.5
2021/07/08,03:40,4.0,north-northwest,1.4
2021/07/08,03:50,3.9,north-northwest,1.9
2021/07/08,04:00,3.8,north-northwest,1.5
2021/07/08,04:10,4.1,north-northwest,1.4
2021/07/08,04:20,4.0,north-northwest,1.9
2021/07/08,04:30,3.9,north-northwest,2.0
2021/07/08,04:40,4.0,north,2.2
2021/07/08,04:50,3.9,north,2.0
2021/07/08,05:00,4.0,north,2.3
2021/07/08,05:10,3.9,north,2.3
2021/07/08,05:20,3.8,north,2.8
2021/07/08,05:30,3.8,north,2.8
2021/07/08,05:40,3.8,north,2.9
2021/07/08,05:50,3.9,north,2.6
2021/07/08,06:00,3.9,north-northeast,3.0
2021/07/08,06:10,3.9,north-northeast,3.1
2021/07/08,06:20,3.8,north,3.1
2021/07/08,06:30,3.9,north,2.3
2021/07/08,06:40,3.9,north,2.2
2021/07/08,06:50,4.0,north,2.3
2021/07/08,07:00,3.9,north,2.2
2021/07/08,07:10,4.0,north-northeast,1.9
2021/07/08,07:20,3.8,north-northeast,2.3
2021/07/08,07:30,4.0,north,2.6
2021/07/08,07:40,3.9,north-northeast,1.5
2021/07/08,07:50,3.8,north-northeast,1.7
2021/07/08,08:00,4.0,north,1.7
2021/07/08,08:10,3.8,north-northeast,1.5
2021/07/08,08:20,3.8,north,1.7
2021/07/08,08:30,3.9,north,2.0
2021/07/08,08:40,4.0,north-northeast,2.0
2021/07/08,08:50,3.9,north-northeast,2.3
2021/07/08,09:00,4.1,north-northeast,2.0
2021/07/08,09:10,3.8,north-northeast,1.7
2021/07/08,09:20,4.0,north-northeast,2.0
2021/07/08,09:30,3.7,north-northeast,2.2
2021/07/08,09:40,4.0,north-northeast,2.8
2021/07/08,09:50,3.8,northeast,2.5
2021/07/08,10:00,3.9,north-northeast,2.2
2021/07/08,10:10,3.8,north-northeast,2.3
2021/07/08,10:20,3.9,north-northeast,1.9
2021/07/08,10:30,3.8,north,1.7
2021/07/08,10:40,3.9,north,2.0
2021/07/08,10:50,3.9,north-northeast,2.0
2021/07/08,11:00,3.9,northeast,2.0
2021/07/08,11:10,3.7,north-northeast,2.3
2021/07/08,11:20,4.0,north-northeast,2.0
2021/07/08,11:30,4.0,north-northeast,2.0
2021/07/08,11:40,4.0,north-northeast,2.2
2021/07/08,11:50,4.0,northeast,2.0
2021/07/08,12:00,3.9,northeast,2.0
2021/07/08,12:10,4.0,north-northeast,2.3
2021/07/08,12:20,3.8,north-northeast,2.3
2021/07/08,12:30,3.7,north-northeast,2.2
2021/07/08,12:40,3.8,northeast,1.7
2021/07/08,12:50,3.8,north-northeast,1.7
2021/07/08,13:00,3.9,north-northeast,1.7
2021/07/08,13:10,3.8,north-northeast,2.0
2021/07/08,13:20,3.8,north-northeast,1.9
2021/07/08,13:30,3.8,north,2.3
2021/07/08,13:40,3.9,north-northeast,2.6
2021/07/08,13:50,3.9,north,2.3
2021/07/08,14:00,4.0,north-northeast,2.3
2021/07/08,14:10,4.0,north-northeast,2.5
2021/07/08,14:20,3.9,north-northeast,2.3
2021/07/08,14:30,3.9,north-northeast,3.4
2021/07/08,14:40,4.0,north-northeast,3.4
2021/07/08,14:50,4.0,northeast,3.3
2021/07/08,15:00,3.9,north-northeast,3.0
2021/07/08,15:10,3.8,north-northeast,3.5
2021/07/08,15:20,3.9,north-northeast,3.3
2021/07/08,15:30,3.9,northeast,2.9
2021/07/08,15:40,4.0,east-northeast,2.0
2021/07/08,15:50,4.0,northeast,2.5
2021/07/08,16:00,4.0,northeast,2.6
2021/07/08,16:10,3.8,north-northeast,2.6
2021/07/08,16:20,3.8,north,2.8
2021/07/08,16:30,3.9,north-northeast,2.5
2021/07/08,16:40,3.9,north-northeast,2.6
2021/07/08,16:50,3.8,north-northeast,1.9
2021/07/08,17:00,3.9,northeast,2.0
2021/07/08,17:10,3.8,northeast,2.3
2021/07/08,17:20,4.1,northeast,2.0
2021/07/08,17:30,4.0,northeast,1.5
2021/07/08,17:40,3.9,northeast,1.9
2021/07/08,17:50,3.8,north-northwest,1.5
2021/07/08,18:00,3.9,east-northeast,1.2
2021/07/08,18:10,4.0,northeast,1.1
2021/07/08,18:20,4.1,north,1.4
2021/07/08,18:30,3.9,north-northeast,1.2
2021/07/08,18:40,3.9,north-northeast,0.9
2021/07/08,18:50,4.0,north-northeast,1.2
2021/07/08,19:00,3.6,north-northeast,1.2
2021/07/08,19:10,3.9,north,1.7
2021/07/08,19:20,3.9,north,2.3
2021/07/08,19:30,4.0,north,2.5
2021/07/08,19:40,3.8,north-northeast,2.6
2021/07/08,19:50,3.9,north,3.3
2021/07/08,20:00,4.1,north-northeast,2.8
2021/07/08,20:10,4.0,northeast,2.6
2021/07/08,20:20,4.0,north-northeast,2.6
2021/07/08,20:30,3.9,north-northeast,2.3
2021/07/08,20:40,3.8,north-northeast,1.5
2021/07/08,20:50,3.8,north-northeast,1.2
2021/07/08,21:00,3.8,north,1.4
2021/07/08,21:10,4.0,north,1.2
2021/07/08,21:20,4.0,north,1.2
2021/07/08,21:30,3.8,north-northwest,1.4
2021/07/08,21:40,3.8,north-northwest,2.0
2021/07/08,21:50,3.9,north-northwest,1.5
2021/07/08,22:00,4.0,north-northwest,1.7
2021/07/08,22:10,4.0,north-northwest,1.9
2021/07/08,22:20,4.0,north,1.9
2021/07/08,22:30,3.9,north,1.5
2021/07/08,22:40,3.8,north-northwest,1.5
2021/07/08,22:50,4.0,north-northwest,1.7
2021/07/08,23:00,3.8,north-northwest,2.0
2021/07/08,23:10,3.9,north-northwest,3.5
2021/07/08,23:20,4.0,north-northwest,3.2
2021/07/08,23:30,3.9,north-northwest,3.0
2021/07/08,23:40,4.0,north-northwest,2.6
2021/07/08,23:50,3.9,north-northwest,2.6
